Tracking 31027 objects as of 19-Jul-2025
HD Live streaming from Space Station
objects crossing your sky now

STARLINK-2169

Track STARLINK-2169 now!
10-day predictions
STARLINK-2169 is classified as:


NORAD ID: 47752
Int'l Code: 2021-017AG
Perigee: 553.1 km
Apogee: 555.6 km
Inclination: 53.1 °
Period: 95.6 minutes
Semi major axis: 6925 km
RCS: Unknown
Launch date: March 4, 2021
Source: United States (US)
Launch site: AIR FORCE EASTERN TEST RANGE (AFETR)
Your satellite tracking list
HAWK-4A
Track 1 satellite(s)




NASA's NSSDC Master Catalog

Two Line Element Set (TLE):
1 47752U 21017AG  25199.64596383 -.00000330  00000-0 -32341-5 0  9992
2 47752  53.0544 177.2799 0001818  79.0173 281.1020 15.06398294241890
Source of the keplerian elements: AFSPC